一网星座-0532星 (ONEWEB-0532)

导读 | 星芒AI

ONEWE-0532 是 OneWeb 卫星通信星座计划中的一颗低轨通信卫星,旨在为全球提供高速互联网服务。该卫星由阿丽亚娜航天公司制造,采用标准化设计以提高部署效率。它运行在约 1200 公里的近地轨道,与其他 OneWeb 卫星共同构建全球覆盖网络,支持偏远地区和航空、航海等移动通信需求。该星座由多国合作推进,致力于弥合数字鸿沟。

基本信息
目录编号:
55140
目录名称:
ONEWEB-0532
国际标识:
2023-004A
轨道中心:
EARTH
卫星名称:
一网星座-0532星
卫星全名:
一网星座-0532星 (ONEWEB-0532)
卫星状态:
在轨 (已飞行1024 天)
发射日期:
2023-01-10 UTC
国别 :
英国 (GB)
星等 :
--
轨道信息
数据来源 国际轨道数据 AOE轨道数据
星历时间 2025-10-30T01:15:17+0800
12小时前
查看轨道信息
2025-10-29T09:00:00+0800
1天前
查看轨道信息
半长轴 7571.847km 7571.844km
偏心率 0.000158 0.0001432
轨道倾角 87.912° 87.913°
近地点辐角 86.473° 90.279°
升交点赤经 51.686° 51.819°
平近点角 273.658° 298.978°
近地点 1192.515km 1192.624km
远地点 1194.909km 1194.794km
周期 109.285分钟 109.285分钟
每日圈数 13.1765 13.176508
详细信息
平衡模式:
三轴稳定
覆盖范围:
全球
运营商:
一网卫星公司
运营商所在国:
英国
制造商(研发单位):
一网卫星公司
制造商所在国:
英国
使用方式:
暂无
卫星简介
OneWeb卫星网络由648颗重约125公斤的微型卫星组成,运行在1200公里的轨道上。 每颗卫星都能够提供至少每秒8千兆位的吞吐量,以使用其高吞吐量的Ku频段有效载荷为家庭和移动平台提供互联网接入。该卫星仍在工作。
2D轨道图
3D轨道图
轨道高度分析图
轨道倾角分析图
轨道综合分析图
查看轨道综合分析图